Wind_Speed
65 65 65 65 65 65 65 65 64 63 64 67 69 69 68 68 69 69 66 62 62 61 59 57 57 57 58 60 61 62 62 63 64 65 65 66 67 68 69 71 71 73 74 75 76 77 78 80 81 82 84 85 86 87 88 89 90 91 91 92 93 94 94 95 95 95 96 96 95 95 95 94 94 93 93 92 92 91 91 91 91 92 92 93 93 94 94
66 65 65 65 65 66 66 65 64 63 65 67 68 68 67 67 67 66 63 62 63 63 60 58 58 59 61 62 61 61 61 62 62 63 64 65 66 68 70 71 72 73 74 76 77 78 80 81 82 83 84 86 87 87 88 89 90 91 92 92 93 93 93 94 94 93 93 92 91 90 89 88 87 86 85 84 83 83 82 82 82 83 83 84 85 86 86
67 66 65 65 66 67 67 65 64 64 65 66 65 66 65 64 64 64 62 64 65 61 58 58 59 60 61 61 61 61 61 62 63 63 65 66 68 70 71 72 74 75 76 78 79 80 81 82 83 84 85 86 87 87 88 89 90 90 90 90 90 90 89 88 87 86 84 83 81 80 79 78 77 76 76 75 74 74 73 73 74 75 75 76 76 77 79
67 65 64 65 66 67 68 66 64 63 64 64 64 64 63 63 64 65 65 66 64 59 57 59 60 60 60 60 61 63 63 64 64 65 67 69 70 72 73 74 75 77 78 79 80 81 82 83 84 84 85 85 86 86 86 86 86 85 85 83 82 81 79 78 77 75 74 73 72 71 70 69 68 68 68 67 68 68 68 68 69 70 70 71 72 73 75
66 64 64 64 65 69 70 67 62 60 60 61 62 63 62 62 64 65 65 65 63 61 61 62 61 60 61 63 64 64 65 65 66 67 69 71 72 73 74 76 77 78 79 80 81 82 82 83 83 83 83 82 82 82 82 81 80 79 77 75 73 72 71 70 69 69 68 67 66 65 65 64 64 64 64 65 66 66 67 68 68 69 70 71 72 73 75
66 65 64 64 67 71 69 63 57 57 59 60 62 62 61 61 63 63 64 64 63 64 64 63 63 63 64 65 65 65 66 67 68 69 70 72 73 74 76 77 78 79 80 80 81 81 81 81 81 80 80 79 78 78 77 76 74 72 69 68 67 67 66 66 66 65 65 64 63 63 63 63 64 65 66 67 68 69 69 70 71 71 72 73 74 75 76
66 65 64 66 70 69 63 58 57 59 59 59 61 61 60 60 62 63 64 65 64 64 64 63 64 65 65 65 66 67 68 68 69 70 72 73 75 76 77 78 78 79 80 80 81 81 80 80 79 78 77 76 75 74 72 70 68 66 65 65 64 64 64 63 63 62 62 62 62 62 63 65 66 67 69 70 70 71 72 72 72 73 73 73 74 74 75
65 65 65 68 69 65 59 59 60 58 57 58 61 62 61 59 61 64 64 63 63 63 64 65 65 66 66 67 67 68 69 70 70 72 74 76 77 78 78 78 79 79 80 80 79 79 78 77 76 74 73 71 70 68 66 65 64 63 63 63 62 62 62 61 61 61 61 62 63 65 66 67 68 69 70 71 71 72 72 71 72 72 72 72 73 73 73
63 64 65 66 67 65 60 58 57 55 56 59 61 63 61 58 60 64 64 63 64 65 66 66 67 67 68 67 67 69 71 72 74 75 77 78 78 78 79 78 78 78 78 77 76 75 73 71 70 68 66 65 64 63 62 61 61 61 61 61 61 61 60 60 61 62 63 64 66 67 68 69 70 70 70 70 70 70 70 70 70 70 71 71 73 74 74
61 63 65 65 67 66 59 54 54 55 57 60 62 64 62 57 58 63 64 64 65 66 66 67 67 68 68 67 68 71 74 76 76 77 78 78 79 78 78 77 76 75 73 71 69 67 65 64 62 61 60 60 60 60 59 59 60 60 60 59 59 60 60 61 62 64 65 67 68 69 69 69 69 69 68 68 68 69 69 68 69 70 71 72 73 73 73
61 62 64 65 66 64 58 55 55 56 58 60 62 65 63 56 56 62 64 64 65 66 66 67 67 68 70 69 69 73 76 78 78 78 78 78 78 77 76 74 72 69 66 64 61 60 58 57 57 57 57 57 58 58 58 58 58 58 58 58 59 60 61 63 64 66 67 68 69 69 69 69 68 68 67 67 67 68 68 69 69 70 72 72 71 70 69
60 61 63 64 64 62 58 57 57 57 59 60 62 65 63 57 57 62 63 64 65 66 67 68 68 69 70 71 72 75 77 78 78 78 77 76 75 73 70 68 64 61 58 56 55 54 54 53 54 54 55 56 56 57 57 57 57 57 57 58 59 61 63 64 65 67 68 69 69 69 69 68 67 67 67 67 67 68 68 69 69 70 70 69 67 66 65
59 61 63 64 63 60 58 58 58 59 61 63 63 62 60 59 61 63 63 65 67 67 69 70 70 70 71 72 74 75 76 77 77 76 75 73 70 66 62 59 56 53 52 51 51 51 51 52 52 53 54 54 55 55 56 56 57 57 58 60 61 62 64 65 66 67 68 69 69 69 68 67 66 66 67 67 67 68 68 68 68 68 67 66 64 62 60
60 60 62 65 64 59 56 58 60 61 63 63 62 61 61 63 65 65 66 67 68 68 69 70 71 71 72 74 75 75 76 76 75 74 72 68 64 60 56 52 50 48 49 49 50 50 51 51 52 52 53 53 54 55 56 56 57 58 59 61 62 63 64 65 67 68 68 69 68 67 67 66 66 66 67 67 68 68 67 67 66 66 64 62 60 57 53
60 60 62 65 65 59 57 61 64 64 64 64 62 63 66 67 67 66 67 68 68 69 70 71 72 73 74 74 75 75 75 74 72 70 67 63 59 54 50 47 46 47 48 49 50 50 51 51 52 52 53 53 54 55 56 57 58 59 60 61 62 63 65 66 67 68 67 67 66 66 66 66 66 66 66 67 67 66 66 65 65 63 62 59 55 50 48
60 62 64 65 64 62 63 65 65 64 64 64 64 66 67 67 67 67 68 69 69 71 72 73 74 74 74 74 73 73 72 70 67 65 62 58 54 50 47 46 46 46 47 48 49 50 51 52 52 53 53 54 55 56 57 58 58 59 60 62 63 64 65 66 66 66 66 65 65 65 65 66 66 66 66 66 65 65 65 65 63 61 58 54 49 46 45
63 64 66 66 64 64 66 66 65 64 64 64 66 67 67 67 68 69 70 71 71 72 73 74 74 73 73 72 70 69 67 65 62 60 57 53 50 47 46 47 47 48 48 49 50 51 51 52 52 53 54 55 56 57 58 58 59 60 61 62 63 64 65 65 65 64 64 63 64 64 65 65 65 65 65 64 63 63 64 63 62 59 54 48 45 44 44
65 66 67 66 65 65 66 65 64 64 65 64 65 67 68 69 69 70 72 73 72 72 73 72 72 71 70 68 67 65 63 60 57 54 52 49 48 47 47 49 49 50 50 51 52 52 52 53 53 54 55 55 56 57 58 59 59 60 61 62 63 63 63 63 63 63 63 63 64 64 64 65 64 64 64 63 62 62 62 61 59 55 48 43 43 43 42
67 68 66 65 65 65 65 64 64 64 64 64 65 67 68 68 69 70 71 71 70 70 70 69 69 68 66 64 62 60 58 55 52 50 49 48 47 47 48 49 50 51 52 53 53 54 54 54 55 55 56 56 57 58 59 59 60 61 61 62 62 62 62 62 62 63 63 63 63 63 63 63 63 63 63 62 61 61 61 59 56 49 43 42 43 43 42
68 67 65 64 64 65 64 64 63 62 62 63 65 67 67 67 67 68 68 67 67 67 66 66 65 63 61 59 57 55 53 51 49 48 48 48 47 47 48 49 50 52 53 54 54 54 55 55 55 56 56 57 58 59 59 60 60 61 61 62 61 61 62 62 62 63 63 63 62 62 61 61 62 62 61 61 60 60 59 57 50 44 41 42 43 43 43
67 66 63 61 62 63 62 60 60 60 61 63 64 65 65 65 65 65 64 63 63 63 62 61 60 58 56 54 52 51 50 48 47 47 47 48 48 48 48 50 51 52 53 53 54 54 55 55 55 56 57 58 59 59 60 60 60 61 61 61 61 61 62 62 62 62 62 62 61 61 60 60 61 60 60 60 59 58 56 52 45 41 40 41 42 42 43
68 65 61 57 58 59 57 56 57 60 62 63 64 64 63 62 61 60 60 60 59 59 58 56 55 53 51 49 49 49 48 46 46 46 46 47 48 48 49 50 51 52 53 53 54 55 55 55 55 56 57 58 59 59 60 60 60 60 61 61 61 61 62 62 62 61 61 60 60 60 60 59 59 58 58 58 59 56 51 45 41 40 41 41 42 43 44
66 62 57 54 55 57 56 56 59 61 61 61 62 61 60 59 58 57 57 57 55 54 53 51 50 49 47 47 48 48 47 47 46 47 48 48 49 49 50 51 52 53 53 54 54 55 55 55 55 56 57 58 59 59 59 60 60 60 61 61 61 61 61 60 60 60 59 59 58 58 58 58 58 56 55 55 56 53 47 40 39 40 41 41 43 45 47
60 56 53 52 53 55 56 58 59 58 58 58 58 57 56 55 54 53 52 51 50 48 47 47 46 47 47 47 48 48 48 48 48 49 50 50 51 51 52 53 53 54 54 54 55 54 54 54 55 55 57 58 58 58 59 59 60 60 60 60 59 59 58 57 57 56 56 56 56 56 57 57 56 55 54 52 49 45 43 40 39 40 41 41 43 46 48
56 52 50 50 52 53 53 54 54 53 53 54 54 53 52 50 48 47 46 46 45 45 45 45 45 46 46 47 48 48 48 49 49 50 51 51 52 52 53 53 54 54 54 54 54 53 53 54 54 55 57 58 58 58 58 59 59 59 58 58 57 56 55 54 53 53 53 54 55 55 55 55 54 54 53 50 43 37 36 38 39 40 42 43 44 45 46
52 48 47 48 50 49 48 49 49 48 47 48 48 47 44 43 43 43 43 44 44 45 45 45 45 46 46 47 47 48 48 49 49 50 50 51 51 52 52 53 53 54 54 53 53 53 53 54 55 56 57 57 57 57 57 57 57 56 56 55 54 53 53 52 52 52 52 53 54 54 54 53 52 51 49 45 39 33 32 34 36 39 42 44 45 45 45
46 46 46 48 48 47 46 48 48 46 44 43 43 41 41 42 43 43 43 44 44 44 45 45 45 45 45 45 46 46 47 48 48 49 49 50 50 51 52 53 53 53 53 53 53 53 54 54 55 56 56 57 57 56 56 56 55 54 54 53 52 52 51 51 51 51 52 52 52 52 52 50 49 48 45 40 35 32 32 33 35 37 41 43 44 44 43
44 44 45 46 46 46 47 47 46 44 41 40 41 42 43 44 44 44 44 43 43 44 44 44 43 44 44 44 45 46 47 48 49 49 49 50 51 52 53 53 54 54 54 54 54 54 54 54 54 55 55 56 55 55 55 54 53 53 52 52 52 51 51 51 51 51 51 51 51 51 50 48 46 45 42 36 32 31 32 33 35 37 40 41 42 42 42
44 43 43 45 47 48 48 46 44 41 40 41 43 45 45 45 44 43 42 42 42 42 42 41 41 42 42 43 44 45 46 47 48 50 51 52 54 55 55 56 56 56 55 55 54 54 54 54 53 54 54 54 54 54 54 53 53 52 52 52 52 52 52 52 52 52 53 53 53 52 50 46 44 42 38 33 31 31 32 34 35 37 39 40 39 39 41
44 44 45 47 48 49 50 48 44 42 43 45 46 47 46 44 42 41 40 40 40 40 40 40 41 42 42 42 43 44 45 46 47 48 50 51 53 55 56 57 57 57 56 55 54 53 53 53 52 53 53 53 53 53 53 53 52 52 52 53 53 53 53 54 55 55 56 56 56 54 51 46 42 38 34 31 31 31 32 34 36 37 39 39 38 38 39
46 47 48 50 51 52 51 49 46 45 46 47 47 47 45 42 41 40 39 39 40 41 41 42 43 43 44 44 44 45 46 47 48 48 49 50 51 52 53 55 56 56 56 54 53 52 52 52 52 52 52 52 53 53 53 53 53 53 53 54 54 55 56 57 58 59 59 58 57 54 49 44 39 35 31 30 30 31 32 34 36 37 37 37 37 37 38
49 51 52 52 52 51 49 48 47 47 48 48 48 47 44 42 41 41 41 42 44 44 44 45 46 46 46 47 47 48 48 49 49 50 51 51 51 51 50 51 52 53 53 52 51 51 51 51 51 52 52 53 54 54 54 54 53 54 55 56 56 57 59 60 60 59 57 56 54 51 45 40 36 32 29 29 30 31 32 33 35 36 36 36 36 37 39
53 53 51 49 48 48 49 48 49 50 49 49 48 47 45 43 42 43 44 46 46 46 46 47 47 47 48 48 49 50 51 51 51 52 53 53 52 51 49 49 50 50 50 50 50 51 52 52 52 52 53 54 54 55 55 54 54 54 56 57 58 59 60 61 59 56 54 53 50 45 40 35 31 29 28 29 29 30 31 33 34 35 35 35 36 37 39
54 52 49 48 49 51 53 52 52 51 49 49 48 46 44 44 44 44 46 47 47 48 48 48 48 48 48 49 50 51 52 52 53 54 55 55 54 52 50 48 48 49 49 50 51 52 53 52 52 53 54 55 55 56 56 55 55 56 57 58 59 60 60 58 56 54 52 49 44 38 34 30 27 26 27 28 28 29 30 32 33 33 34 35 36 38 39
56 55 53 52 53 55 55 53 51 50 48 48 47 46 45 45 46 45 46 47 48 49 49 49 49 49 49 50 51 52 52 53 55 56 57 57 56 54 52 49 48 48 49 50 52 53 53 54 54 55 55 56 56 57 56 56 56 57 57 58 59 59 57 54 53 51 47 42 36 32 29 26 24 25 26 27 27 28 30 31 31 32 33 34 36 37 39
54 54 54 53 53 53 51 49 48 48 48 48 47 47 47 47 47 46 47 48 50 50 51 51 51 51 51 51 52 53 53 55 56 58 59 59 58 56 53 51 49 49 50 52 54 54 55 56 56 56 56 57 57 57 56 57 57 57 58 58 58 55 52 51 50 47 40 34 29 27 24 23 23 24 25 25 26 28 29 30 30 31 32 33 35 36 38
48 48 48 49 49 48 48 48 48 49 49 49 49 49 49 49 47 47 48 49 50 52 52 52 52 52 52 53 54 54 55 56 58 59 60 60 59 57 54 52 50 50 51 53 55 56 57 57 57 56 57 57 57 56 57 57 57 58 58 56 54 50 48 47 45 40 33 27 24 22 21 21 22 23 23 24 25 27 28 29 30 31 32 33 34 35 37
46 46 47 48 49 49 49 50 50 50 49 50 51 51 51 50 49 49 50 50 52 53 53 53 53 53 54 55 55 56 57 58 60 61 62 61 59 57 54 53 52 52 52 53 54 56 57 57 56 56 57 56 56 57 57 57 57 57 55 52 48 45 44 43 39 33 27 23 21 20 20 20 21 21 22 23 24 25 26 28 29 30 32 33 34 35 36
46 46 47 48 49 49 50 49 49 49 50 51 52 52 51 51 51 51 51 51 52 53 54 54 54 55 56 56 57 58 59 61 62 63 63 61 60 57 55 54 55 54 54 53 54 55 56 56 56 56 56 56 57 57 57 57 56 54 50 47 44 42 40 38 33 27 22 19 19 19 19 19 20 20 21 22 23 24 26 27 29 30 31 32 33 34 35
45 45 46 46 47 48 48 48 49 50 52 53 53 53 52 52 52 51 51 52 53 54 54 54 55 56 57 58 59 60 62 63 64 64 63 61 60 59 57 57 57 57 56 55 55 55 56 56 56 56 56 57 57 57 57 56 53 49 45 43 40 38 36 32 27 22 19 18 18 19 19 18 18 19 20 22 23 24 25 27 28 29 31 32 33 34 35
45 45 45 46 47 49 50 51 52 53 53 54 54 54 54 53 53 52 52 52 53 54 54 55 57 58 59 60 61 63 64 65 64 64 63 62 62 61 60 59 59 58 57 56 56 55 55 55 56 57 57 57 57 56 55 52 48 44 42 39 37 35 31 26 21 19 18 18 18 18 17 17 17 19 20 21 22 23 25 26 28 29 30 32 33 34 35
47 47 48 49 50 51 52 53 54 54 54 55 55 55 55 54 53 51 51 52 53 54 55 57 58 60 61 62 63 64 65 65 65 65 64 64 64 63 61 60 60 59 57 56 56 56 56 56 57 57 57 56 56 54 51 47 43 41 39 36 34 30 26 21 19 18 18 18 18 17 16 16 17 19 20 21 22 23 25 26 27 29 30 31 32 34 35
49 49 50 50 51 51 52 53 54 55 55 55 55 55 53 52 50 50 51 52 54 55 57 59 60 61 63 64 65 65 66 66 66 67 67 67 66 65 62 59 58 57 56 55 56 56 56 56 56 56 56 55 53 49 46 42 40 39 36 33 30 25 21 20 19 19 18 17 16 16 16 16 18 19 20 21 22 23 25 26 27 29 30 31 32 33 35
49 50 50 51 52 52 53 53 54 54 54 53 53 51 50 50 50 52 53 54 55 57 59 60 62 63 64 65 66 67 67 68 69 69 69 68 66 64 61 58 57 57 57 56 57 57 57 57 56 55 53 51 47 44 42 40 38 36 33 29 24 22 21 20 19 18 17 16 15 15 16 17 18 19 20 21 22 23 24 26 27 29 30 31 32 33 35
50 50 51 52 52 52 52 52 52 52 52 51 51 50 51 52 53 54 55 56 57 59 60 62 63 64 65 66 67 68 69 71 71 71 69 66 64 62 60 59 59 59 59 59 58 57 56 55 53 50 48 45 43 41 39 38 36 33 29 24 22 23 21 20 19 17 16 15 15 15 16 17 18 19 20 21 22 23 25 26 28 29 31 32 33 33 34
50 51 51 51 51 50 51 51 51 51 51 51 51 52 53 54 55 56 56 57 59 60 62 63 65 66 67 68 69 71 72 72 71 69 66 64 63 63 63 62 61 60 59 58 56 54 52 51 48 46 44 42 41 39 37 35 33 28 24 23 24 23 21 19 18 16 15 14 14 15 17 18 18 19 20 21 22 24 25 27 28 30 31 32 33 33 34
49 49 49 49 49 49 49 50 50 50 50 51 52 53 54 55 56 57 58 59 60 62 63 65 66 67 69 70 71 72 71 70 68 66 65 64 64 64 63 62 60 58 57 55 53 51 50 48 46 44 42 40 38 36 34 31 27 23 24 25 24 21 20 18 16 15 15 15 15 17 18 18 19 20 20 21 22 24 25 27 29 30 31 32 33 33 34
48 47 47 47 47 48 48 48 49 50 51 52 54 55 56 57 58 58 59 61 62 63 65 66 68 70 70 71 70 69 67 66 66 65 65 64 63 61 60 58 56 54 52 50 49 47 45 43 41 39 37 35 33 32 29 25 23 24 26 24 22 20 18 16 15 15 15 16 17 18 18 19 19 20 20 21 23 24 26 28 30 31 32 33 33 34 34
47 46 46 46 46 46 48 49 51 52 54 56 57 58 58 59 59 60 61 62 64 65 67 68 69 69 68 67 66 65 65 64 64 62 60 58 57 55 53 51 49 46 45 43 41 39 37 36 34 32 31 30 28 26 22 22 25 26 24 22 20 18 16 15 14 15 16 17 18 19 19 19 20 20 21 22 23 25 27 29 30 32 33 33 34 34 34
46 45 45 46 47 49 51 53 54 56 57 57 58 58 58 59 60 61 63 64 66 66 66 66 65 64 63 63 62 62 61 59 57 55 53 51 50 48 45 43 40 38 36 34 32 31 30 28 27 26 25 24 21 20 22 25 25 24 21 19 17 15 14 14 15 15 16 17 18 19 19 20 20 21 22 23 24 26 27 29 31 32 33 34 34 35 34
46 47 48 49 51 52 54 55 55 56 56 56 57 58 59 60 61 62 63 63 63 62 61 61 61 61 60 59 58 56 54 52 50 49 47 45 42 39 36 33 31 29 27 26 25 24 22 21 20 19 18 18 19 22 24 24 22 20 18 16 15 14 14 14 15 16 17 18 18 19 19 20 21 22 23 24 25 27 28 30 32 33 34 34 35 35 34
48 49 50 51 52 53 53 53 54 54 55 56 57 57 58 59 59 59 59 58 58 58 58 58 58 56 54 52 50 48 47 46 44 42 38 35 31 28 25 22 20 19 18 16 15 14 13 13 14 15 17 19 22 23 22 21 19 18 16 15 14 14 13 14 15 16 17 18 18 19 20 21 22 23 23 25 26 28 29 31 33 34 34 35 35 35 35
Wind_Direction
278 278 277 277 277 277 276 276 277 278 277 277 276 276 279 280 279 279 281 279 277 278 279 277 277 277 276 275 275 276 277 278 279 279 279 280 281 281 281 282 282 283 283 284 284 284 285 285 285 284 284 284 284 284 284 284 284 284 284 284 285 285 285 286 286 286 286 286 286 286 286 286 285 285 285 284 284 284 283 283 282 282 281 280 280 279 278
278 278 277 277 277 276 276 276 277 277 276 274 275 277 279 279 278 280 280 278 276 277 279 278 278 277 277 277 278 279 280 280 280 280 281 281 282 282 283 283 284 284 285 285 285 285 285 284 284 284 284 284 284 284 285 285 285 285 285 286 286 287 287 287 287 287 287 287 287 286 286 286 286 286 286 286 286 285 285 285 284 283 283 282 281 280 279
277 277 276 276 275 275 274 275 276 276 275 274 276 277 277 277 277 279 278 276 276 278 279 279 277 276 277 279 280 281 280 280 280 281 282 283 283 284 284 284 285 285 285 285 285 285 285 285 285 285 286 286 286 286 286 286 286 287 287 287 288 288 288 288 288 288 288 287 287 287 287 287 287 287 287 287 287 287 287 286 286 285 285 284 283 282 281
276 276 274 274 274 273 272 275 278 277 276 276 276 275 275 275 276 276 276 277 279 280 278 277 277 278 279 280 280 279 280 280 281 282 283 283 284 284 285 285 286 286 287 287 287 287 287 287 287 287 287 287 287 287 287 287 287 287 287 287 287 287 287 287 287 287 287 287 287 287 288 288 288 288 288 288 288 287 287 286 286 285 285 285 284 283 282
275 275 273 273 272 269 272 279 281 278 275 275 274 273 274 275 276 276 277 278 280 280 278 278 279 280 280 279 279 280 281 282 283 283 283 284 285 286 287 287 288 288 288 288 288 289 289 288 288 288 288 288 287 287 287 287 287 287 286 286 285 285 285 285 285 285 286 286 287 287 288 288 288 288 288 288 288 287 287 286 286 286 285 285 285 284 284
274 274 273 271 268 269 277 283 280 274 273 273 272 273 274 274 275 276 277 278 279 279 279 280 280 280 280 280 281 281 282 283 284 284 285 286 287 288 289 289 289 289 289 289 289 289 288 288 288 288 288 288 287 287 287 286 286 285 285 284 284 284 284 285 286 286 287 287 288 288 289 289 290 290 290 290 290 289 289 288 288 287 287 286 286 286 285
273 272 271 269 268 274 280 280 274 272 273 273 274 274 273 273 275 276 277 278 279 280 280 280 280 280 280 281 282 283 284 285 286 287 288 288 289 289 289 289 289 289 289 289 289 289 289 289 289 289 288 288 287 287 286 286 285 285 285 285 285 286 287 287 288 288 289 289 290 290 291 291 291 291 291 291 291 290 290 290 289 289 288 288 287 287 287
271 271 271 270 272 276 276 275 275 276 276 275 274 273 272 273 276 277 278 279 280 280 280 280 280 280 281 282 283 285 286 287 288 288 289 290 290 290 290 290 290 290 289 289 290 290 290 290 290 289 289 288 287 287 286 286 286 286 286 287 288 289 289 289 290 290 290 291 291 292 292 292 292 292 292 292 291 291 291 290 290 290 290 289 289 288 288
271 272 272 273 274 274 274 277 278 278 276 275 274 274 274 275 276 278 279 280 280 279 280 280 281 281 282 283 285 287 288 288 289 290 291 292 292 292 291 291 291 290 291 291 291 291 290 290 289 289 288 288 287 287 286 287 287 287 288 289 290 290 290 290 290 291 291 292 292 292 293 293 293 292 292 292 291 291 291 291 291 291 291 290 290 290 290
271 272 273 274 274 275 278 279 278 277 277 277 277 277 276 277 279 279 279 279 279 279 280 281 282 282 283 284 286 288 289 290 291 292 292 292 292 292 292 291 292 292 292 292 291 291 290 289 288 287 287 286 286 286 286 287 287 288 289 289 290 290 290 290 291 291 292 292 293 293 293 293 293 292 292 292 292 292 291 291 291 291 291 291 291 291 292
272 274 275 275 276 278 281 280 278 278 278 278 278 278 279 281 281 279 278 279 280 281 281 282 282 284 285 286 288 289 290 291 292 292 292 292 292 292 292 292 293 293 292 291 290 289 288 287 286 286 285 285 285 285 286 286 287 288 288 288 288 289 289 290 290 291 292 293 293 294 294 293 293 292 292 292 292 292 292 292 292 292 292 292 293 293 293
274 275 275 276 277 280 282 281 280 279 278 277 277 280 283 284 280 278 280 281 282 282 283 283 284 285 287 288 289 290 291 292 292 292 292 292 292 292 293 293 293 292 291 290 288 287 286 285 285 284 284 284 284 285 285 285 286 286 287 287 287 288 289 290 290 291 292 293 294 294 294 293 293 293 293 293 293 293 293 294 294 294 294 294 295 295 294
274 274 275 277 278 280 282 282 281 280 279 278 279 283 285 284 280 280 282 282 282 283 284 285 286 287 289 290 291 291 291 291 291 291 291 292 293 293 294 293 292 291 289 287 285 285 284 283 283 282 283 283 283 284 284 285 285 286 286 287 287 288 289 290 291 292 293 294 294 294 294 293 293 293 294 294 294 294 294 295 295 295 295 296 296 296 294
274 275 276 277 277 280 282 282 281 280 280 282 284 285 285 283 283 283 283 282 283 284 285 286 288 289 290 291 291 291 290 290 291 291 292 293 294 294 293 292 290 287 285 284 284 283 283 283 283 283 284 284 284 284 284 285 285 286 286 287 288 289 290 291 292 293 294 294 294 294 294 294 294 294 295 295 295 296 296 296 296 296 297 298 297 295 294
275 275 275 277 279 282 281 280 281 282 283 285 286 286 284 284 284 284 284 285 286 286 287 288 289 289 290 290 291 291 290 291 291 292 293 294 294 294 292 289 286 284 283 283 284 284 284 285 285 285 285 285 285 285 285 285 286 286 287 288 289 290 291 292 293 294 294 295 294 294 294 295 295 295 295 296 296 297 297 297 297 297 298 298 296 293 293
275 275 275 277 281 282 281 281 283 285 285 286 286 285 285 286 286 286 286 287 287 288 289 289 290 290 291 291 291 291 291 292 293 294 294 295 294 294 291 288 285 284 284 284 284 284 285 285 285 285 286 285 286 285 286 286 286 287 288 289 290 291 292 293 294 294 295 295 295 295 295 295 295 295 296 296 297 298 298 298 297 298 299 297 293 292 293
274 275 277 279 281 282 282 283 285 285 286 286 286 286 286 287 287 287 287 288 289 289 290 290 291 291 291 291 291 291 291 293 293 294 294 294 294 293 290 288 287 286 285 285 284 284 285 285 285 286 286 286 286 286 286 287 288 288 289 290 291 293 293 294 295 295 295 295 295 295 295 295 296 296 296 297 298 298 298 297 298 299 297 294 292 293 296
275 276 278 280 282 283 283 284 285 285 286 287 287 288 287 287 287 288 289 290 291 291 291 291 291 291 291 291 291 291 292 293 293 293 293 292 292 291 289 287 287 286 286 286 285 286 286 287 287 287 287 287 287 287 288 289 289 290 291 292 293 294 294 295 295 295 296 296 296 296 296 296 296 296 297 298 298 298 297 297 298 298 294 292 293 295 297
276 278 280 283 284 284 284 284 284 285 286 287 287 287 286 287 288 289 290 291 290 290 290 290 289 289 290 290 291 292 293 293 293 292 291 290 289 287 286 285 285 286 286 286 286 287 287 288 288 289 289 289 288 289 289 290 291 292 293 294 294 295 295 296 296 296 296 296 295 295 295 295 296 296 297 298 298 297 296 297 298 296 292 293 295 296 298
279 280 282 284 284 284 284 284 284 286 287 287 286 286 286 288 288 289 289 288 288 288 288 288 288 289 290 291 292 292 292 292 291 290 289 288 287 285 284 283 284 284 285 286 287 287 288 289 289 290 290 290 290 290 291 292 293 294 295 295 296 296 296 296 296 296 296 295 295 295 294 295 295 296 297 298 297 297 297 298 296 292 292 294 295 296 299
280 281 283 284 283 282 281 282 284 286 286 286 286 286 286 287 287 287 286 286 285 286 286 287 288 289 291 291 291 290 290 290 290 289 288 288 287 286 285 284 285 285 286 286 287 288 289 290 290 290 290 290 291 291 293 294 294 295 295 296 296 297 297 297 296 296 295 294 294 294 294 294 295 296 297 297 297 297 298 297 294 292 293 294 295 296 300
280 282 283 283 280 279 280 282 284 285 285 285 285 285 286 286 286 286 285 284 284 285 286 287 288 290 291 290 289 289 290 290 290 289 288 287 286 286 286 286 286 286 287 287 288 289 290 290 290 291 290 291 291 293 294 295 295 296 296 296 297 296 296 296 295 294 294 293 293 293 293 294 294 296 297 298 297 298 296 293 292 294 296 297 298 301 303
281 282 282 280 279 279 282 283 283 283 284 284 284 285 285 285 285 285 284 284 285 286 287 288 289 289 290 289 289 290 292 292 291 290 288 288 288 287 287 287 287 288 288 289 290 290 291 291 291 291 291 291 292 294 294 295 296 296 297 297 296 296 295 294 293 293 292 292 292 293 293 294 295 296 296 297 298 298 295 291 293 296 298 300 302 304 305
281 281 281 281 281 283 285 285 284 284 284 284 284 285 285 286 286 285 285 286 287 288 289 289 290 290 290 291 291 292 292 292 291 290 290 290 290 290 290 290 290 290 291 291 291 292 292 291 291 291 291 292 293 294 295 296 297 297 297 297 296 295 294 293 293 292 292 292 293 293 294 295 296 296 295 295 296 295 293 293 296 297 298 301 303 304 305
281 282 283 284 285 287 288 288 288 288 287 287 286 286 287 287 286 286 287 288 289 289 289 290 291 291 291 291 292 292 293 293 292 293 293 292 292 291 291 291 291 292 292 292 292 292 291 291 291 291 291 292 294 295 296 297 298 298 297 297 296 295 294 293 293 293 293 293 293 294 295 296 297 296 296 295 291 286 286 293 298 299 300 302 303 304 304
283 285 286 287 288 290 292 293 293 292 291 289 288 288 287 287 286 287 288 288 289 289 290 290 291 291 292 293 293 294 294 294 294 294 293 293 293 293 292 292 292 292 292 293 292 291 291 291 291 292 292 294 295 296 297 298 298 298 297 297 296 296 295 294 293 293 293 293 294 295 296 297 297 297 296 294 289 281 281 287 294 299 303 305 305 305 305
285 287 288 288 289 292 295 295 293 292 292 290 289 289 288 287 287 288 288 289 289 289 290 290 291 292 293 294 294 295 294 294 294 295 295 294 294 293 292 292 292 292 292 292 291 290 290 291 292 293 293 294 296 297 298 299 298 298 298 297 297 296 296 295 295 295 295 295 295 296 297 298 298 297 295 291 286 284 285 287 290 296 301 304 305 307 308
286 287 286 286 288 293 296 294 292 292 292 291 290 290 290 290 289 289 289 290 290 289 289 291 292 293 294 294 295 295 295 295 296 295 294 293 292 292 291 291 291 291 290 290 289 290 290 291 292 293 293 294 296 298 298 299 299 298 298 298 298 298 297 297 297 297 297 297 297 297 298 298 298 296 294 288 284 285 289 291 293 298 301 303 305 308 310
287 284 282 283 288 292 293 292 292 293 293 292 292 292 292 291 291 291 291 291 289 289 290 292 293 294 294 295 296 297 297 297 296 295 293 292 291 290 289 289 289 288 288 288 289 289 290 291 292 292 293 294 296 297 298 299 299 299 299 299 299 299 298 298 297 297 297 297 297 297 298 298 297 294 290 285 284 287 291 294 297 301 302 303 305 308 311
284 281 281 284 287 289 291 292 291 291 293 294 294 294 292 291 292 293 292 290 289 290 291 292 293 294 296 297 299 300 300 299 299 298 297 296 294 292 290 289 289 288 288 288 289 289 290 290 291 291 292 294 295 297 298 299 299 299 300 299 299 298 298 297 297 297 296 296 295 295 296 297 295 291 285 282 284 289 293 296 300 302 303 304 305 308 311
281 280 282 285 286 288 290 290 289 289 292 293 294 293 292 291 293 294 292 290 290 290 292 293 295 296 296 299 301 302 302 302 302 302 302 302 300 297 295 293 290 289 288 288 288 288 289 289 290 290 291 292 294 296 298 299 299 299 299 299 299 298 298 297 297 296 295 294 292 291 292 293 292 287 281 281 286 291 295 298 301 303 304 306 308 309 311
280 281 284 286 286 286 286 286 286 288 290 292 292 292 290 290 293 294 293 292 292 293 294 296 297 297 297 299 301 302 303 304 305 305 306 306 305 302 299 296 292 290 288 287 287 287 288 288 289 289 290 291 293 296 298 299 298 298 298 298 299 299 299 299 298 297 296 294 292 289 288 288 287 282 277 281 287 292 296 300 302 304 305 308 310 311 313
282 283 284 284 283 282 282 283 285 287 289 290 290 290 288 289 292 294 294 294 294 294 295 295 295 295 297 298 300 301 303 304 305 306 308 308 308 306 302 298 294 290 288 286 286 286 287 287 288 288 289 291 293 296 298 298 298 297 298 299 299 300 300 300 299 298 296 295 291 287 283 282 280 275 275 282 288 292 297 300 302 305 308 310 312 313 315
281 281 281 280 279 280 281 283 284 285 287 288 288 287 287 289 291 292 292 292 292 291 292 292 292 293 294 296 298 299 300 302 304 306 308 309 309 308 305 300 295 291 287 285 285 285 286 286 287 287 289 291 293 296 297 297 297 298 299 299 300 301 301 299 298 298 297 294 289 283 277 274 271 270 276 283 289 294 298 301 303 307 310 312 314 315 317
276 276 276 276 278 279 280 281 282 284 286 287 286 285 286 288 291 291 289 288 288 288 289 290 290 291 293 294 295 297 298 300 302 304 306 308 309 309 306 302 296 291 286 284 284 284 284 285 286 287 288 291 293 295 296 296 297 298 299 300 301 301 300 298 298 299 297 291 284 276 269 265 265 270 278 286 292 297 300 302 305 309 312 313 315 317 318
273 273 273 274 276 277 279 280 282 284 285 286 285 284 286 289 290 289 287 287 287 287 288 289 290 291 292 293 294 295 296 298 300 303 305 307 308 308 307 303 296 290 286 284 283 283 284 284 285 286 288 290 292 293 295 296 297 298 299 300 300 299 297 297 298 298 294 286 276 267 261 259 265 274 282 289 295 299 301 304 307 310 312 314 316 317 318
270 270 270 271 274 276 277 279 282 284 285 285 284 285 286 288 289 288 288 288 287 287 288 289 289 290 291 292 292 293 295 297 299 301 304 306 307 307 306 302 296 290 285 283 283 283 283 284 285 286 288 289 291 292 294 296 297 298 299 299 298 296 296 297 297 294 287 277 265 256 254 259 268 277 285 292 297 300 302 305 309 311 312 314 316 317 319
269 269 269 271 274 276 277 280 282 283 283 282 283 284 286 288 289 289 289 289 288 288 289 289 288 289 290 290 291 292 294 296 298 301 303 305 306 306 304 300 295 290 286 284 283 283 283 284 285 286 287 289 290 292 294 296 297 298 298 297 295 294 295 295 294 288 278 264 253 249 253 263 273 281 289 295 299 301 304 308 310 312 313 315 316 317 319
270 271 272 273 275 276 278 279 280 280 280 281 283 285 287 288 289 290 290 290 289 288 287 287 287 288 289 289 290 292 294 296 298 300 302 304 304 304 302 298 294 290 287 285 283 283 283 283 284 285 286 288 290 291 293 295 297 297 295 293 292 292 293 292 287 278 263 250 245 249 258 268 278 286 294 298 300 303 306 309 311 312 314 315 316 317 320
273 274 275 276 277 278 278 278 278 280 282 284 285 287 288 288 289 290 289 288 287 286 285 286 287 287 288 288 290 292 294 296 298 300 301 302 302 302 300 297 292 289 287 284 283 282 283 283 284 285 286 288 289 291 293 295 295 293 291 290 290 290 289 285 276 261 246 241 246 255 264 274 284 292 296 298 301 305 309 311 312 313 314 315 317 319 321
277 277 277 278 278 278 278 279 281 283 285 286 287 287 288 288 289 289 287 286 285 285 285 286 287 287 288 289 290 292 294 296 298 299 300 301 300 300 298 295 291 288 287 284 282 282 283 283 283 284 285 287 288 290 292 292 291 289 288 287 287 286 282 272 256 242 238 243 251 261 271 281 289 294 297 299 303 307 311 312 313 314 315 316 318 320 323
278 278 279 279 279 279 280 282 284 286 287 287 287 287 288 288 288 287 285 284 284 285 286 287 287 287 288 289 290 292 294 296 297 298 299 299 298 298 296 293 289 288 286 284 283 282 282 282 283 284 285 286 288 289 289 288 286 285 284 284 283 279 268 249 235 234 240 248 258 268 278 286 292 295 298 302 306 309 312 314 315 315 316 318 320 322 324
281 281 282 282 282 283 284 285 286 287 287 287 287 287 287 287 286 284 284 284 285 286 286 286 286 287 288 289 290 292 294 295 296 297 297 297 297 295 293 291 288 287 285 284 284 283 283 283 283 284 285 286 287 286 285 284 282 282 281 280 275 263 243 229 228 236 245 254 265 275 283 290 294 296 299 304 307 311 313 315 316 318 319 320 322 323 324
282 283 283 284 285 286 287 287 287 287 287 287 287 286 285 284 284 284 285 285 286 286 286 286 286 286 287 289 290 292 293 294 295 295 296 295 294 293 291 289 287 286 285 285 284 284 284 283 284 284 285 284 283 282 281 280 279 278 277 272 257 237 223 223 232 241 250 260 271 280 287 292 294 297 301 305 308 312 315 317 318 320 321 322 322 323 324
282 283 285 286 287 288 288 288 288 288 287 287 286 285 284 285 285 286 286 286 286 286 286 286 286 286 287 289 291 292 293 294 294 294 294 293 292 290 290 289 287 286 286 285 284 284 283 283 283 283 282 281 280 279 278 276 276 275 268 251 229 218 219 228 237 246 256 267 276 283 289 293 295 298 302 306 310 314 317 319 321 322 322 323 323 324 324
283 284 285 286 287 288 288 288 288 288 287 287 287 286 287 287 288 288 288 287 286 286 286 286 286 287 289 290 291 292 293 293 293 293 293 292 291 290 289 288 287 286 285 284 284 283 282 281 281 279 278 277 277 275 273 273 272 265 246 222 211 213 222 232 241 251 261 270 278 286 291 293 296 299 303 307 311 315 318 321 322 322 323 323 323 324 324
284 285 286 287 287 288 288 288 288 288 288 288 289 289 290 290 290 289 288 287 287 286 286 286 287 289 290 291 292 293 293 293 293 292 292 291 291 290 289 288 287 285 284 283 282 281 280 278 277 276 275 274 272 270 270 269 260 239 215 205 208 217 226 235 246 256 265 274 281 287 290 293 296 299 303 307 312 316 319 321 322 323 323 323 323 324 324
285 286 286 287 287 287 287 287 288 289 289 290 291 292 292 292 291 290 288 287 287 286 287 288 289 290 291 292 292 293 293 293 293 293 292 291 291 289 288 287 286 285 283 281 280 278 276 274 273 271 269 268 266 266 263 252 229 207 200 203 211 220 229 240 252 261 270 278 284 287 290 293 296 299 303 307 312 316 319 321 322 323 323 323 323 324 325
285 285 285 286 286 287 288 289 290 291 292 293 294 294 293 292 290 288 287 287 287 287 288 289 290 291 292 293 293 293 293 293 293 293 293 292 291 290 288 287 285 283 281 279 276 274 271 269 267 264 262 260 259 254 240 215 198 194 198 206 215 224 236 248 257 265 274 281 285 288 291 294 296 299 302 307 311 315 319 321 322 322 323 323 323 324 325
284 284 285 287 288 289 291 292 293 294 294 294 293 292 291 289 288 287 287 288 288 289 290 291 292 293 293 294 294 294 294 294 294 294 293 292 291 289 288 286 284 281 278 275 272 269 266 263 259 255 252 248 239 221 200 189 188 193 201 209 219 232 244 254 262 271 279 284 287 291 293 295 297 300 303 307 310 314 317 319 321 322 322 322 323 324 324
284 286 288 289 291 292 293 294 294 294 293 292 291 290 289 288 288 289 289 290 291 291 292 293 294 294 295 295 295 295 295 295 295 294 293 291 290 288 286 283 280 277 273 270 266 262 257 252 245 238 228 214 198 187 183 185 190 197 205 215 228 241 252 261 271 279 284 288 291 294 295 297 300 302 305 307 310 312 315 317 319 320 321 321 321 322 323
288 289 291 292 293 293 293 293 292 291 290 290 289 289 289 290 290 291 292 292 293 294 294 295 295 296 296 295 295 296 296 296 295 294 292 290 288 285 281 278 275 271 266 261 253 244 233 221 210 198 188 180 178 179 183 188 194 201 212 226 239 250 262 272 280 285 289 292 294 296 298 300 302 304 305 307 309 310 313 315 317 319 319 319 320 321 321
Height
5649 5648 5645 5646 5646 5645 5645 5646 5648 5651 5648 5641 5635 5632 5634 5633 5624 5623 5631 5631 5624 5627 5632 5631 5628 5626 5623 5622 5621 5620 5620 5619 5617 5615 5613 5611 5608 5605 5603 5601 5598 5596 5594 5592 5590 5587 5585 5583 5581 5578 5575 5572 5569 5565 5562 5559 5556 5553 5550 5547 5543 5540 5538 5535 5533 5530 5528 5526 5523 5520 5516 5514 5511 5509 5507 5505 5503 5502 5500 5498 5496 5494 5493 5491 5490 5488 5486
5640 5639 5636 5638 5637 5634 5635 5638 5640 5641 5638 5633 5628 5628 5630 5624 5616 5617 5621 5618 5616 5621 5623 5621 5620 5617 5612 5612 5613 5613 5612 5610 5607 5605 5603 5602 5599 5596 5593 5591 5589 5587 5585 5582 5580 5577 5575 5573 5569 5566 5564 5560 5557 5553 5550 5546 5543 5541 5538 5534 5531 5528 5525 5522 5519 5517 5515 5512 5509 5506 5503 5500 5498 5496 5495 5493 5491 5489 5487 5485 5483 5481 5480 5478 5476 5474 5472
5629 5630 5629 5628 5627 5624 5624 5629 5632 5631 5627 5626 5626 5625 5622 5616 5610 5611 5610 5604 5607 5616 5616 5610 5609 5608 5605 5605 5605 5604 5602 5600 5598 5597 5595 5592 5589 5586 5584 5581 5579 5577 5575 5572 5569 5567 5564 5561 5557 5554 5551 5548 5544 5541 5537 5534 5531 5529 5526 5522 5518 5515 5512 5509 5506 5504 5502 5499 5496 5494 5491 5489 5487 5486 5484 5482 5480 5478 5476 5474 5472 5470 5468 5466 5464 5461 5458
5618 5622 5621 5619 5618 5614 5613 5619 5624 5623 5619 5618 5618 5615 5612 5610 5605 5603 5599 5595 5599 5607 5606 5600 5599 5600 5599 5598 5596 5594 5592 5591 5590 5588 5586 5583 5579 5576 5574 5572 5569 5566 5564 5561 5558 5555 5552 5548 5545 5542 5539 5536 5533 5529 5525 5522 5520 5517 5514 5511 5508 5504 5501 5498 5496 5494 5492 5489 5487 5484 5482 5480 5478 5477 5475 5473 5470 5469 5467 5465 5462 5460 5458 5455 5453 5450 5446
5607 5611 5610 5610 5608 5601 5601 5613 5619 5616 5612 5610 5607 5604 5604 5604 5598 5593 5591 5591 5593 5595 5593 5591 5592 5592 5590 5588 5586 5584 5583 5582 5580 5579 5577 5573 5570 5567 5564 5562 5559 5555 5552 5549 5546 5543 5540 5536 5533 5530 5527 5524 5521 5518 5514 5511 5509 5506 5504 5501 5498 5495 5492 5490 5488 5485 5483 5481 5479 5476 5474 5472 5470 5468 5466 5463 5461 5459 5457 5455 5452 5451 5448 5445 5442 5439 5435
5597 5599 5601 5600 5594 5589 5597 5609 5611 5605 5603 5600 5596 5596 5598 5596 5591 5586 5584 5584 5585 5584 5582 5582 5582 5581 5579 5577 5577 5575 5573 5572 5570 5569 5566 5562 5559 5557 5555 5552 5549 5545 5542 5539 5536 5533 5529 5525 5522 5518 5515 5513 5510 5507 5503 5501 5498 5496 5493 5491 5488 5486 5484 5481 5479 5477 5475 5472 5470 5468 5465 5463 5461 5459 5456 5454 5451 5448 5447 5445 5442 5440 5437 5435 5432 5428 5424
5587 5588 5590 5584 5578 5585 5597 5601 5598 5595 5594 5592 5588 5587 5589 5588 5584 5579 5576 5575 5576 5574 5573 5573 5572 5570 5569 5568 5567 5565 5562 5561 5560 5558 5555 5552 5549 5547 5545 5542 5539 5535 5531 5528 5525 5522 5518 5514 5511 5507 5503 5500 5497 5495 5492 5490 5487 5485 5483 5481 5479 5477 5475 5472 5470 5468 5465 5463 5461 5459 5457 5454 5452 5449 5446 5443 5441 5438 5436 5433 5431 5428 5426 5423 5420 5417 5413
5577 5578 5578 5572 5570 5581 5590 5589 5587 5587 5586 5583 5578 5575 5579 5582 5578 5572 5568 5568 5568 5565 5563 5563 5562 5561 5560 5559 5558 5555 5552 5550 5549 5547 5544 5541 5539 5536 5533 5530 5527 5524 5520 5517 5514 5510 5507 5503 5499 5495 5491 5488 5486 5483 5481 5479 5477 5475 5473 5472 5470 5468 5465 5463 5460 5458 5456 5454 5452 5449 5447 5445 5442 5439 5436 5433 5430 5427 5425 5423 5420 5417 5414 5411 5408 5405 5402
5570 5568 5567 5565 5563 5569 5580 5583 5581 5578 5575 5572 5567 5563 5569 5576 5572 5563 5560 5559 5558 5556 5554 5553 5553 5551 5550 5551 5550 5546 5540 5538 5538 5536 5533 5530 5527 5524 5520 5518 5515 5512 5508 5505 5502 5499 5496 5492 5488 5485 5481 5478 5476 5473 5472 5470 5468 5466 5465 5463 5461 5459 5456 5454 5452 5449 5447 5445 5442 5440 5438 5435 5432 5429 5426 5424 5420 5417 5414 5412 5409 5406 5403 5400 5397 5393 5391
5562 5560 5558 5557 5554 5557 5572 5578 5572 5567 5564 5561 5556 5552 5558 5569 5566 5555 5550 5550 5547 5547 5547 5545 5543 5542 5541 5543 5543 5535 5528 5527 5527 5525 5523 5519 5515 5512 5509 5505 5503 5500 5497 5494 5491 5488 5485 5482 5479 5476 5473 5470 5467 5465 5464 5462 5460 5459 5458 5456 5453 5451 5448 5446 5443 5440 5438 5435 5433 5431 5428 5425 5422 5420 5417 5414 5410 5407 5404 5402 5400 5396 5392 5390 5387 5382 5379
5556 5553 5549 5548 5546 5551 5563 5566 5560 5559 5556 5551 5546 5540 5547 5561 5558 5544 5540 5541 5539 5538 5537 5535 5535 5533 5531 5533 5533 5525 5517 5516 5516 5514 5512 5508 5504 5501 5497 5494 5492 5489 5486 5483 5481 5478 5475 5473 5470 5468 5465 5462 5460 5458 5457 5455 5453 5452 5450 5448 5446 5443 5440 5438 5435 5432 5429 5426 5424 5421 5419 5416 5413 5410 5407 5404 5401 5398 5394 5391 5389 5386 5382 5379 5377 5372 5368
5550 5546 5541 5539 5540 5546 5554 5553 5549 5548 5545 5541 5538 5534 5539 5548 5543 5534 5533 5533 5530 5529 5527 5525 5526 5525 5523 5523 5521 5515 5508 5506 5504 5502 5500 5497 5494 5490 5487 5484 5482 5479 5476 5474 5472 5469 5467 5465 5463 5460 5458 5456 5454 5452 5450 5448 5447 5445 5443 5441 5438 5436 5433 5430 5427 5423 5420 5417 5415 5412 5409 5406 5403 5400 5397 5394 5391 5388 5385 5381 5378 5375 5371 5368 5366 5363 5358
5544 5539 5534 5531 5533 5541 5545 5541 5538 5537 5532 5530 5532 5531 5531 5531 5527 5527 5527 5524 5521 5521 5518 5516 5516 5515 5514 5512 5510 5505 5500 5496 5494 5491 5488 5487 5484 5481 5478 5475 5472 5470 5467 5465 5463 5461 5460 5458 5456 5453 5451 5449 5447 5445 5443 5441 5440 5438 5435 5433 5430 5428 5425 5422 5418 5415 5412 5409 5406 5402 5399 5396 5394 5390 5387 5384 5381 5378 5375 5372 5368 5365 5362 5358 5356 5353 5349
5535 5533 5528 5522 5525 5536 5538 5529 5524 5525 5522 5521 5523 5523 5520 5517 5516 5517 5516 5514 5513 5512 5508 5507 5507 5505 5504 5501 5498 5494 5490 5486 5484 5481 5477 5476 5475 5472 5470 5467 5465 5462 5459 5457 5455 5454 5452 5450 5448 5447 5445 5443 5441 5438 5436 5435 5433 5430 5428 5425 5422 5420 5416 5413 5410 5406 5403 5400 5396 5393 5390 5386 5384 5381 5377 5374 5371 5368 5365 5362 5359 5356 5353 5349 5346 5344 5341
5527 5524 5521 5515 5517 5528 5528 5518 5514 5515 5513 5513 5514 5511 5507 5506 5506 5506 5505 5505 5504 5500 5498 5497 5496 5494 5494 5491 5487 5484 5479 5475 5473 5471 5468 5466 5464 5463 5461 5459 5457 5454 5452 5450 5448 5446 5445 5443 5441 5439 5437 5435 5433 5431 5429 5427 5425 5423 5421 5417 5414 5411 5408 5404 5401 5397 5394 5391 5387 5384 5380 5377 5375 5372 5368 5365 5361 5358 5355 5352 5349 5347 5344 5340 5337 5335 5334
5516 5513 5512 5510 5513 5517 5514 5509 5508 5506 5504 5505 5504 5499 5495 5495 5495 5495 5494 5494 5493 5490 5488 5486 5484 5483 5482 5480 5477 5473 5469 5466 5464 5461 5460 5458 5455 5454 5452 5450 5449 5447 5445 5443 5441 5439 5438 5436 5434 5432 5430 5428 5426 5423 5422 5420 5418 5415 5413 5409 5406 5403 5399 5396 5392 5388 5385 5382 5378 5375 5371 5368 5366 5362 5359 5356 5353 5349 5345 5342 5340 5338 5335 5332 5329 5327 5326
5507 5505 5505 5505 5508 5507 5501 5499 5500 5497 5494 5494 5492 5488 5486 5484 5483 5483 5482 5482 5482 5480 5477 5475 5473 5471 5469 5467 5465 5463 5460 5458 5456 5453 5451 5449 5447 5446 5444 5442 5440 5439 5437 5436 5434 5432 5430 5429 5427 5425 5423 5420 5418 5416 5414 5412 5410 5407 5404 5401 5398 5394 5390 5387 5383 5380 5377 5373 5370 5366 5363 5359 5357 5353 5350 5347 5344 5340 5337 5333 5331 5329 5327 5324 5322 5320 5318
5500 5498 5498 5498 5500 5497 5492 5489 5489 5487 5485 5485 5482 5478 5475 5473 5472 5472 5470 5470 5470 5467 5465 5463 5462 5460 5458 5456 5454 5452 5451 5450 5448 5446 5444 5442 5440 5439 5436 5434 5432 5431 5429 5428 5426 5424 5423 5421 5419 5417 5415 5413 5410 5408 5406 5404 5401 5399 5396 5392 5389 5385 5381 5378 5374 5371 5368 5365 5361 5357 5354 5350 5348 5345 5341 5339 5336 5332 5328 5325 5323 5321 5319 5317 5315 5312 5310
5491 5490 5493 5493 5489 5486 5482 5480 5479 5477 5477 5477 5473 5468 5464 5463 5462 5461 5460 5458 5457 5455 5454 5453 5450 5449 5449 5447 5445 5444 5442 5441 5440 5438 5436 5435 5434 5432 5430 5428 5425 5423 5421 5420 5418 5416 5415 5413 5411 5409 5407 5404 5402 5400 5397 5395 5393 5390 5387 5383 5380 5376 5373 5369 5366 5363 5360 5356 5353 5349 5346 5342 5339 5336 5333 5330 5327 5324 5320 5317 5316 5313 5311 5310 5308 5305 5303
5482 5482 5487 5486 5479 5474 5472 5470 5469 5468 5468 5467 5463 5458 5456 5455 5453 5451 5450 5448 5446 5445 5444 5442 5441 5441 5440 5439 5437 5436 5434 5433 5432 5430 5429 5428 5426 5425 5423 5421 5418 5416 5414 5412 5410 5409 5407 5405 5403 5401 5398 5395 5393 5391 5389 5386 5384 5381 5377 5374 5371 5367 5364 5361 5357 5354 5351 5348 5344 5341 5338 5335 5332 5329 5326 5322 5319 5316 5312 5309 5308 5307 5305 5303 5301 5298 5296
5475 5474 5478 5476 5468 5463 5463 5463 5462 5461 5459 5456 5453 5449 5448 5447 5445 5443 5441 5439 5437 5436 5435 5434 5432 5432 5433 5432 5429 5427 5427 5426 5425 5423 5421 5420 5418 5417 5415 5413 5411 5409 5406 5404 5403 5401 5399 5397 5395 5392 5389 5386 5384 5382 5380 5377 5375 5372 5368 5365 5362 5358 5355 5352 5349 5346 5342 5339 5336 5333 5330 5328 5325 5322 5318 5314 5311 5309 5306 5302 5300 5299 5298 5297 5294 5292 5289
5467 5468 5469 5465 5456 5452 5455 5458 5457 5454 5451 5447 5444 5441 5440 5438 5436 5434 5432 5430 5429 5428 5427 5427 5425 5424 5425 5424 5421 5420 5420 5419 5417 5415 5414 5412 5410 5409 5407 5404 5403 5401 5398 5396 5395 5393 5391 5389 5386 5383 5380 5377 5375 5373 5371 5368 5366 5363 5359 5357 5353 5350 5346 5344 5340 5338 5334 5331 5328 5325 5322 5320 5318 5315 5312 5307 5302 5301 5299 5297 5294 5292 5291 5289 5287 5284 5282
5458 5460 5458 5452 5445 5443 5447 5451 5450 5447 5444 5440 5436 5434 5433 5431 5428 5426 5423 5422 5422 5421 5420 5420 5418 5417 5417 5415 5413 5412 5412 5410 5409 5407 5405 5403 5402 5400 5398 5396 5394 5392 5390 5388 5386 5384 5382 5380 5378 5375 5372 5369 5366 5365 5362 5359 5357 5353 5350 5348 5345 5341 5338 5335 5332 5329 5326 5323 5321 5318 5315 5312 5310 5308 5306 5302 5297 5293 5291 5290 5289 5286 5284 5283 5281 5278 5275
5448 5448 5447 5442 5437 5436 5439 5440 5439 5438 5436 5433 5429 5427 5425 5423 5421 5419 5416 5415 5415 5414 5413 5412 5410 5409 5408 5407 5405 5404 5403 5402 5400 5398 5396 5395 5393 5391 5389 5388 5386 5384 5382 5380 5378 5376 5374 5371 5369 5367 5363 5360 5359 5356 5354 5351 5348 5344 5341 5339 5336 5333 5330 5327 5325 5322 5319 5316 5313 5310 5307 5305 5302 5299 5298 5297 5294 5289 5285 5283 5282 5280 5279 5278 5276 5273 5269
5438 5438 5437 5432 5428 5429 5430 5429 5428 5429 5427 5424 5421 5420 5419 5417 5414 5412 5410 5409 5408 5407 5405 5405 5403 5401 5400 5399 5397 5396 5395 5393 5391 5389 5388 5386 5384 5382 5381 5379 5377 5375 5373 5371 5369 5367 5365 5363 5361 5358 5355 5352 5351 5348 5346 5342 5339 5336 5333 5330 5327 5325 5322 5319 5317 5314 5311 5308 5305 5303 5300 5298 5295 5292 5289 5288 5287 5286 5282 5279 5277 5274 5272 5271 5269 5268 5264
5429 5429 5428 5424 5421 5422 5422 5420 5419 5420 5419 5416 5413 5413 5412 5410 5407 5405 5404 5402 5401 5399 5398 5397 5396 5394 5392 5391 5389 5388 5386 5385 5383 5382 5380 5378 5376 5374 5372 5370 5369 5367 5365 5363 5361 5359 5356 5355 5352 5350 5347 5344 5342 5340 5337 5334 5331 5328 5325 5322 5319 5317 5314 5312 5310 5307 5304 5301 5298 5295 5293 5290 5288 5285 5282 5280 5279 5279 5278 5276 5274 5270 5267 5265 5262 5260 5258
5423 5422 5421 5417 5415 5416 5415 5413 5411 5412 5412 5409 5406 5406 5405 5403 5401 5399 5398 5396 5394 5392 5391 5389 5388 5386 5385 5383 5382 5380 5379 5377 5376 5374 5372 5370 5368 5366 5364 5362 5361 5359 5357 5355 5353 5350 5348 5347 5344 5341 5338 5336 5334 5332 5329 5326 5324 5320 5317 5315 5312 5309 5307 5304 5302 5300 5297 5294 5291 5288 5286 5283 5281 5278 5276 5274 5273 5272 5271 5270 5269 5266 5264 5260 5257 5254 5251
5418 5418 5414 5409 5408 5409 5409 5407 5405 5405 5405 5403 5400 5399 5398 5396 5394 5393 5391 5390 5388 5386 5384 5383 5381 5380 5379 5377 5375 5374 5372 5370 5368 5367 5365 5362 5360 5358 5356 5354 5352 5351 5349 5347 5344 5342 5340 5338 5336 5334 5331 5328 5327 5324 5321 5319 5316 5313 5310 5308 5305 5302 5300 5297 5294 5292 5289 5286 5284 5281 5279 5277 5274 5272 5270 5268 5267 5266 5265 5264 5262 5260 5258 5256 5252 5248 5245
5413 5411 5407 5403 5402 5402 5401 5400 5400 5399 5398 5396 5394 5392 5391 5389 5387 5386 5385 5383 5381 5379 5378 5377 5375 5374 5373 5371 5369 5367 5365 5363 5361 5359 5357 5355 5352 5350 5348 5346 5344 5343 5341 5338 5336 5334 5332 5330 5329 5326 5323 5321 5319 5317 5314 5311 5309 5305 5303 5300 5297 5295 5292 5290 5287 5285 5282 5279 5277 5274 5272 5270 5268 5266 5264 5263 5262 5261 5260 5258 5256 5254 5252 5250 5247 5244 5240
5406 5402 5399 5397 5396 5394 5394 5394 5394 5393 5391 5389 5387 5385 5384 5382 5381 5380 5379 5377 5375 5374 5373 5371 5370 5368 5367 5365 5363 5361 5359 5357 5355 5352 5349 5347 5344 5342 5340 5338 5336 5334 5332 5330 5328 5326 5324 5323 5321 5318 5316 5314 5312 5309 5307 5304 5301 5298 5296 5293 5290 5288 5285 5282 5280 5278 5275 5272 5269 5267 5265 5264 5262 5260 5259 5257 5256 5256 5254 5252 5251 5249 5246 5244 5241 5238 5235
5397 5394 5391 5390 5389 5387 5386 5386 5386 5385 5384 5382 5380 5379 5378 5376 5375 5374 5373 5371 5369 5368 5367 5366 5364 5362 5360 5358 5356 5354 5352 5350 5347 5344 5342 5339 5336 5334 5332 5330 5327 5326 5323 5321 5319 5318 5317 5315 5313 5311 5309 5307 5304 5302 5300 5297 5294 5291 5288 5285 5283 5280 5277 5275 5272 5269 5266 5264 5261 5259 5258 5257 5255 5254 5253 5252 5251 5250 5249 5247 5245 5243 5241 5238 5235 5232 5230
5388 5386 5384 5383 5381 5380 5379 5378 5378 5378 5377 5375 5374 5373 5372 5370 5369 5368 5367 5365 5363 5362 5361 5359 5357 5355 5353 5351 5349 5347 5345 5342 5339 5337 5334 5331 5328 5326 5324 5321 5319 5317 5315 5313 5311 5310 5309 5308 5306 5303 5301 5299 5297 5295 5292 5290 5287 5284 5281 5278 5275 5272 5269 5266 5263 5260 5257 5255 5253 5251 5251 5250 5249 5249 5248 5247 5247 5245 5244 5242 5240 5238 5235 5233 5230 5227 5224
5379 5378 5378 5376 5374 5372 5371 5371 5370 5370 5369 5369 5367 5367 5366 5364 5363 5361 5360 5358 5357 5355 5354 5352 5350 5348 5347 5344 5342 5339 5337 5334 5332 5329 5326 5324 5321 5318 5316 5313 5311 5309 5307 5305 5304 5302 5301 5300 5298 5296 5294 5292 5289 5287 5285 5282 5280 5277 5274 5271 5267 5264 5261 5257 5254 5251 5249 5247 5244 5244 5243 5243 5243 5243 5243 5242 5242 5240 5239 5237 5235 5233 5230 5228 5225 5222 5219
5370 5370 5370 5369 5366 5363 5363 5364 5363 5362 5362 5362 5361 5360 5359 5358 5356 5355 5353 5351 5350 5348 5347 5345 5343 5341 5339 5337 5334 5332 5329 5327 5324 5322 5319 5316 5314 5311 5308 5306 5303 5301 5299 5297 5296 5294 5293 5292 5290 5288 5286 5284 5282 5279 5277 5275 5272 5269 5266 5263 5260 5256 5253 5249 5246 5244 5241 5238 5237 5236 5237 5237 5237 5238 5238 5238 5237 5235 5234 5233 5230 5228 5225 5222 5219 5217 5213
5361 5360 5360 5360 5358 5356 5355 5356 5356 5355 5355 5354 5353 5353 5352 5350 5349 5348 5346 5344 5342 5340 5339 5337 5335 5333 5331 5329 5327 5324 5322 5319 5317 5314 5311 5309 5306 5303 5301 5298 5295 5293 5291 5289 5287 5287 5286 5284 5282 5280 5278 5276 5274 5272 5269 5267 5264 5262 5259 5255 5252 5249 5245 5242 5239 5236 5234 5232 5231 5230 5231 5232 5232 5233 5233 5233 5232 5231 5229 5228 5225 5223 5221 5218 5215 5212 5209
5350 5350 5351 5351 5350 5349 5348 5348 5348 5348 5347 5346 5346 5345 5344 5342 5341 5340 5338 5336 5334 5332 5331 5329 5327 5325 5323 5321 5318 5316 5314 5311 5309 5306 5304 5301 5298 5296 5293 5290 5287 5285 5283 5281 5279 5278 5277 5276 5274 5272 5270 5268 5266 5263 5261 5259 5256 5254 5251 5247 5244 5241 5238 5235 5232 5229 5227 5226 5225 5226 5226 5227 5228 5228 5228 5228 5227 5226 5225 5223 5220 5218 5216 5214 5211 5208 5205
5340 5341 5342 5342 5342 5342 5342 5341 5341 5340 5339 5338 5338 5337 5336 5334 5333 5331 5329 5328 5326 5324 5322 5320 5318 5316 5314 5312 5310 5308 5305 5303 5301 5298 5295 5293 5290 5288 5285 5282 5279 5277 5275 5273 5270 5269 5268 5267 5265 5263 5262 5260 5257 5255 5253 5251 5248 5246 5243 5240 5237 5234 5232 5229 5226 5224 5222 5221 5221 5222 5223 5223 5224 5224 5224 5223 5223 5222 5220 5218 5216 5214 5211 5209 5207 5204 5201
5333 5334 5334 5334 5335 5335 5334 5334 5333 5332 5332 5331 5330 5329 5327 5326 5324 5323 5321 5319 5317 5315 5314 5312 5310 5308 5306 5304 5301 5299 5297 5295 5292 5290 5286 5284 5282 5280 5277 5274 5270 5268 5266 5265 5263 5261 5259 5257 5256 5255 5253 5251 5249 5247 5245 5243 5240 5238 5235 5232 5230 5228 5225 5223 5220 5219 5218 5218 5218 5219 5220 5220 5220 5220 5220 5219 5218 5217 5215 5213 5212 5209 5207 5205 5203 5200 5197
5327 5327 5327 5328 5328 5328 5327 5327 5326 5325 5324 5323 5322 5320 5319 5317 5316 5314 5313 5311 5309 5307 5305 5303 5301 5299 5297 5295 5293 5290 5288 5286 5283 5280 5277 5275 5273 5270 5268 5265 5261 5258 5258 5256 5254 5252 5250 5248 5247 5246 5244 5243 5241 5239 5237 5235 5233 5230 5228 5225 5223 5222 5220 5218 5216 5215 5214 5215 5215 5216 5216 5217 5217 5216 5216 5215 5214 5213 5211 5209 5208 5205 5203 5201 5199 5196 5193
5321 5321 5321 5321 5321 5320 5320 5320 5318 5317 5316 5315 5313 5312 5310 5308 5307 5305 5304 5302 5300 5299 5297 5295 5293 5291 5289 5286 5284 5281 5279 5276 5274 5271 5268 5266 5263 5261 5259 5255 5251 5249 5248 5247 5245 5243 5241 5239 5238 5237 5235 5234 5232 5231 5229 5227 5225 5223 5221 5219 5217 5216 5214 5213 5212 5211 5211 5212 5213 5213 5213 5213 5213 5213 5212 5211 5210 5209 5207 5205 5203 5201 5199 5197 5194 5192 5189
5315 5315 5315 5314 5314 5314 5313 5312 5311 5310 5308 5306 5305 5303 5301 5300 5298 5297 5295 5293 5292 5290 5288 5286 5284 5282 5280 5278 5275 5272 5269 5266 5263 5261 5258 5256 5253 5251 5250 5246 5241 5239 5239 5238 5235 5233 5232 5231 5229 5228 5227 5225 5224 5222 5221 5219 5217 5216 5214 5213 5212 5210 5209 5208 5208 5208 5209 5210 5210 5210 5210 5210 5209 5209 5208 5208 5206 5205 5203 5202 5200 5198 5196 5193 5190 5187 5184
5308 5308 5308 5307 5307 5306 5305 5304 5303 5301 5300 5298 5297 5295 5293 5291 5290 5288 5286 5285 5283 5281 5279 5277 5275 5273 5271 5268 5266 5263 5259 5256 5253 5251 5248 5246 5243 5241 5239 5236 5232 5229 5229 5228 5225 5224 5223 5222 5220 5219 5218 5216 5215 5214 5212 5211 5210 5209 5208 5207 5206 5205 5205 5205 5205 5206 5206 5207 5207 5207 5207 5206 5206 5205 5205 5204 5202 5201 5199 5198 5196 5194 5192 5189 5186 5184 5180
5301 5300 5300 5299 5299 5298 5297 5296 5294 5293 5291 5290 5288 5286 5284 5283 5281 5279 5278 5276 5274 5272 5271 5268 5266 5264 5261 5259 5256 5253 5249 5246 5243 5241 5238 5236 5232 5230 5229 5227 5223 5220 5219 5218 5216 5214 5214 5212 5211 5210 5209 5208 5207 5206 5205 5204 5203 5202 5202 5201 5201 5200 5201 5202 5203 5203 5204 5204 5204 5204 5203 5203 5202 5202 5201 5200 5199 5197 5196 5194 5192 5190 5188 5185 5183 5180 5177
5293 5293 5292 5291 5290 5290 5289 5287 5286 5284 5283 5281 5279 5278 5276 5274 5272 5271 5269 5268 5265 5264 5261 5259 5257 5255 5252 5249 5246 5243 5239 5236 5233 5230 5228 5225 5221 5218 5217 5216 5213 5210 5209 5208 5206 5205 5204 5203 5202 5201 5200 5199 5198 5198 5197 5197 5196 5196 5196 5196 5196 5197 5198 5199 5200 5200 5201 5201 5201 5200 5200 5199 5199 5198 5197 5196 5195 5193 5192 5190 5188 5186 5184 5182 5179 5176 5173
5285 5285 5284 5283 5282 5281 5280 5278 5277 5276 5274 5273 5271 5269 5268 5266 5264 5262 5261 5259 5256 5254 5252 5249 5247 5245 5242 5239 5236 5232 5229 5225 5222 5219 5217 5214 5210 5207 5206 5205 5203 5200 5198 5197 5196 5195 5194 5193 5192 5191 5191 5190 5190 5190 5190 5190 5190 5190 5190 5191 5192 5193 5195 5196 5197 5197 5198 5198 5197 5197 5197 5196 5196 5195 5194 5192 5191 5190 5188 5186 5184 5182 5180 5178 5175 5173 5170
5278 5277 5276 5275 5274 5273 5272 5270 5269 5268 5266 5265 5263 5261 5260 5258 5256 5254 5252 5249 5247 5245 5242 5240 5237 5234 5231 5228 5225 5221 5218 5214 5211 5208 5206 5203 5199 5196 5195 5193 5191 5189 5187 5186 5185 5184 5183 5183 5183 5182 5182 5182 5182 5182 5183 5183 5183 5184 5185 5186 5188 5190 5192 5193 5194 5194 5194 5194 5194 5194 5193 5193 5192 5191 5190 5189 5188 5186 5184 5182 5181 5179 5177 5174 5172 5169 5167
5270 5269 5268 5267 5266 5265 5264 5263 5261 5260 5258 5257 5255 5253 5252 5250 5247 5245 5243 5240 5238 5235 5233 5230 5227 5224 5221 5217 5214 5210 5206 5202 5199 5197 5194 5191 5188 5185 5183 5181 5179 5178 5176 5175 5174 5174 5173 5173 5173 5174 5174 5174 5175 5175 5176 5177 5177 5179 5181 5183 5185 5188 5189 5190 5191 5191 5191 5191 5191 5190 5190 5189 5189 5187 5186 5185 5184 5182 5180 5179 5177 5175 5173 5171 5168 5166 5163
5262 5262 5261 5260 5258 5257 5256 5255 5253 5252 5250 5249 5247 5245 5243 5240 5238 5236 5233 5230 5228 5225 5222 5219 5216 5213 5210 5206 5202 5199 5195 5191 5188 5185 5183 5180 5177 5174 5171 5169 5168 5166 5165 5164 5164 5164 5164 5164 5165 5165 5166 5167 5168 5169 5170 5171 5173 5175 5178 5181 5183 5185 5186 5187 5188 5188 5188 5187 5187 5187 5186 5186 5185 5184 5183 5182 5180 5178 5177 5175 5173 5171 5169 5167 5164 5162 5159
5255 5254 5253 5252 5251 5249 5248 5247 5245 5244 5242 5240 5238 5236 5233 5231 5228 5226 5223 5221 5218 5215 5212 5209 5205 5202 5199 5195 5192 5188 5185 5181 5178 5174 5171 5169 5166 5163 5161 5159 5158 5156 5155 5155 5155 5155 5155 5156 5157 5158 5159 5160 5162 5163 5165 5167 5170 5173 5176 5178 5180 5182 5183 5184 5184 5184 5184 5184 5184 5183 5183 5182 5181 5180 5179 5178 5176 5175 5173 5171 5169 5167 5165 5163 5160 5158 5156
5247 5246 5245 5244 5243 5241 5240 5238 5237 5235 5233 5231 5228 5226 5224 5222 5219 5216 5214 5211 5208 5205 5202 5198 5195 5192 5188 5185 5181 5178 5174 5171 5168 5165 5162 5159 5157 5154 5152 5151 5149 5149 5148 5148 5148 5148 5149 5150 5151 5152 5154 5155 5157 5159 5162 5165 5169 5172 5174 5176 5178 5179 5180 5181 5181 5181 5181 5181 5180 5180 5179 5178 5177 5176 5175 5174 5172 5171 5169 5168 5166 5164 5161 5159 5157 5154 5152
5240 5239 5237 5236 5235 5233 5231 5230 5228 5226 5223 5221 5219 5217 5215 5212 5210 5207 5204 5201 5197 5195 5192 5188 5185 5182 5179 5175 5172 5168 5165 5162 5159 5156 5154 5151 5149 5147 5145 5144 5143 5143 5143 5143 5143 5144 5144 5146 5147 5148 5150 5152 5155 5158 5161 5165 5168 5170 5172 5174 5176 5177 5177 5178 5178 5178 5178 5177 5177 5176 5175 5174 5173 5172 5171 5170 5168 5167 5165 5164 5162 5160 5158 5155 5153 5151 5148
5232 5231 5229 5228 5226 5225 5223 5221 5219 5217 5215 5212 5210 5208 5205 5203 5200 5197 5194 5191 5188 5185 5182 5179 5176 5173 5170 5167 5164 5161 5158 5155 5152 5149 5147 5145 5143 5142 5141 5140 5140 5140 5140 5140 5140 5141 5142 5144 5145 5147 5149 5152 5155 5158 5161 5164 5167 5169 5171 5172 5173 5174 5175 5175 5175 5175 5174 5174 5173 5172 5172 5171 5169 5168 5167 5166 5164 5163 5162 5160 5158 5156 5154 5152 5149 5147 5145